GEFSGL_prec_meanprecacc_198.txt.gz
Total_Precipitation_Accumulation
0.73 0.75 0.75 0.65 0.52 0.49 0.48 0.45 0.45 0.49 0.55 0.56 0.59 0.65 0.65 0.67 0.69 0.71 0.77 0.83 0.89 0.99 1.07 1.20 1.41 1.59 1.65 1.66 1.71 1.77 1.82 1.68 1.42 1.28 1.07 1.08 1.24 1.20 1.19 1.12 1.19 1.24 1.02
0.70 0.65 0.62 0.54 0.47 0.46 0.43 0.38 0.40 0.45 0.47 0.49 0.54 0.58 0.58 0.64 0.66 0.66 0.66 0.69 0.78 0.85 0.86 0.88 0.99 1.21 1.38 1.51 1.60 1.62 1.69 1.68 1.54 1.52 1.43 1.22 1.20 1.19 1.31 1.37 1.30 1.26 1.22
0.76 0.65 0.60 0.56 0.53 0.51 0.45 0.42 0.41 0.48 0.59 0.62 0.61 0.64 0.62 0.64 0.64 0.65 0.68 0.70 0.72 0.77 0.80 0.82 0.89 0.98 1.15 1.24 1.35 1.46 1.54 1.67 1.66 1.49 1.54 1.48 1.27 1.24 1.28 1.36 1.41 1.50 1.38
0.96 0.82 0.72 0.65 0.59 0.52 0.46 0.45 0.42 0.46 0.52 0.55 0.63 0.71 0.79 0.83 0.82 0.79 0.78 0.76 0.71 0.72 0.79 0.86 0.88 0.88 1.00 1.21 1.34 1.42 1.46 1.57 1.70 1.64 1.58 1.55 1.39 1.32 1.32 1.35 1.47 1.57 1.57
0.98 0.85 0.71 0.60 0.51 0.48 0.51 0.52 0.48 0.43 0.45 0.46 0.54 0.63 0.73 0.81 0.87 0.87 0.73 0.62 0.62 0.67 0.68 0.69 0.77 0.84 0.87 1.03 1.19 1.43 1.45 1.57 1.65 1.72 1.66 1.51 1.38 1.31 1.28 1.27 1.36 1.56 1.61
0.80 0.76 0.61 0.54 0.49 0.44 0.45 0.51 0.52 0.42 0.40 0.41 0.45 0.43 0.46 0.50 0.67 0.67 0.56 0.45 0.51 0.61 0.68 0.70 0.70 0.71 0.74 0.78 0.82 1.07 1.26 1.39 1.50 1.53 1.59 1.47 1.36 1.30 1.38 1.39 1.33 1.38 1.49
0.50 0.50 0.42 0.41 0.48 0.47 0.48 0.47 0.42 0.35 0.36 0.38 0.33 0.29 0.31 0.35 0.40 0.39 0.45 0.46 0.48 0.53 0.62 0.71 0.75 0.73 0.79 0.88 0.84 0.87 0.97 1.04 1.17 1.29 1.35 1.31 1.30 1.26 1.35 1.39 1.37 1.29 1.22
0.25 0.22 0.18 0.26 0.37 0.39 0.35 0.32 0.28 0.29 0.32 0.39 0.34 0.31 0.34 0.31 0.34 0.38 0.42 0.44 0.57 0.63 0.62 0.63 0.74 0.80 0.85 1.01 1.00 1.07 1.00 0.90 0.88 0.94 1.09 1.15 1.11 1.21 1.31 1.48 1.54 1.41 1.31
0.07 0.07 0.08 0.09 0.11 0.12 0.11 0.12 0.17 0.22 0.27 0.24 0.28 0.42 0.42 0.37 0.45 0.43 0.37 0.44 0.56 0.63 0.59 0.62 0.74 0.84 0.98 1.09 1.14 1.16 1.06 0.96 0.98 1.06 1.14 1.21 1.23 1.30 1.36 1.44 1.49 1.48 1.39
0.05 0.06 0.06 0.06 0.07 0.06 0.06 0.07 0.10 0.14 0.18 0.19 0.22 0.36 0.42 0.42 0.42 0.32 0.31 0.42 0.55 0.63 0.64 0.65 0.86 0.87 0.95 1.01 1.07 1.19 1.20 1.07 1.00 1.02 1.07 1.10 1.09 1.18 1.37 1.38 1.49 1.57 1.44
0.07 0.06 0.05 0.05 0.06 0.09 0.11 0.09 0.09 0.09 0.10 0.13 0.18 0.23 0.23 0.22 0.22 0.23 0.28 0.33 0.40 0.52 0.61 0.65 0.63 0.75 0.77 0.87 0.99 1.07 1.28 1.16 1.09 1.10 1.08 0.98 0.94 1.00 1.12 1.30 1.43 1.51 1.45
0.07 0.07 0.06 0.06 0.06 0.07 0.13 0.13 0.12 0.11 0.09 0.09 0.14 0.19 0.19 0.15 0.13 0.16 0.19 0.23 0.30 0.37 0.44 0.56 0.56 0.64 0.69 0.76 0.77 0.95 1.13 1.09 1.03 1.10 1.10 1.03 0.94 0.92 0.95 1.02 1.18 1.26 1.23
0.09 0.08 0.08 0.07 0.07 0.06 0.08 0.11 0.12 0.10 0.10 0.10 0.11 0.14 0.17 0.18 0.15 0.17 0.19 0.22 0.26 0.28 0.30 0.44 0.52 0.60 0.59 0.58 0.70 0.88 0.94 0.98 1.11 1.08 1.09 1.03 0.94 0.91 0.84 0.87 0.99 1.07 1.05
0.12 0.11 0.10 0.10 0.10 0.09 0.09 0.11 0.13 0.14 0.13 0.13 0.14 0.16 0.19 0.21 0.17 0.17 0.22 0.26 0.28 0.27 0.29 0.43 0.55 0.61 0.59 0.58 0.65 0.78 0.83 0.96 1.10 1.03 1.00 0.94 0.87 0.87 0.85 0.84 0.88 0.94 1.00
0.16 0.16 0.15 0.14 0.14 0.14 0.14 0.13 0.13 0.16 0.18 0.16 0.19 0.22 0.20 0.19 0.18 0.19 0.21 0.25 0.27 0.28 0.37 0.53 0.66 0.67 0.67 0.64 0.68 0.78 0.76 0.73 0.83 0.83 0.85 0.86 0.84 0.84 0.80 0.74 0.77 0.81 0.85
0.17 0.17 0.14 0.15 0.18 0.19 0.17 0.15 0.14 0.14 0.17 0.18 0.17 0.18 0.19 0.18 0.17 0.20 0.24 0.27 0.29 0.38 0.54 0.71 0.82 0.90 0.90 0.83 0.79 0.78 0.71 0.69 0.69 0.72 0.80 0.81 0.78 0.81 0.81 0.74 0.75 0.78 0.79
0.13 0.13 0.12 0.12 0.12 0.16 0.18 0.16 0.15 0.14 0.14 0.16 0.15 0.16 0.17 0.19 0.20 0.26 0.31 0.33 0.39 0.60 0.82 0.86 0.89 0.94 0.96 0.89 0.78 0.70 0.60 0.54 0.57 0.63 0.66 0.69 0.71 0.73 0.78 0.77 0.76 0.74 0.70
0.13 0.16 0.15 0.11 0.10 0.11 0.11 0.13 0.15 0.17 0.17 0.16 0.16 0.16 0.17 0.18 0.22 0.32 0.43 0.53 0.57 0.71 0.85 0.88 0.95 0.94 0.90 0.79 0.66 0.57 0.47 0.45 0.48 0.51 0.51 0.49 0.55 0.61 0.66 0.70 0.72 0.71 0.66
0.13 0.15 0.17 0.15 0.13 0.13 0.13 0.10 0.11 0.13 0.14 0.15 0.16 0.15 0.14 0.14 0.16 0.22 0.29 0.34 0.36 0.43 0.51 0.56 0.61 0.62 0.58 0.52 0.46 0.43 0.39 0.38 0.39 0.41 0.44 0.44 0.49 0.51 0.53 0.58 0.65 0.72 0.72
0.11 0.15 0.19 0.20 0.19 0.17 0.17 0.13 0.12 0.11 0.11 0.12 0.12 0.14 0.15 0.16 0.17 0.18 0.18 0.20 0.22 0.24 0.27 0.29 0.30 0.31 0.32 0.33 0.34 0.36 0.37 0.38 0.40 0.43 0.45 0.46 0.49 0.54 0.52 0.53 0.57 0.63 0.66
0.09 0.12 0.16 0.20 0.21 0.20 0.19 0.18 0.16 0.14 0.14 0.14 0.15 0.17 0.20 0.20 0.20 0.21 0.23 0.24 0.24 0.24 0.25 0.26 0.27 0.28 0.28 0.31 0.36 0.38 0.41 0.41 0.41 0.43 0.47 0.47 0.48 0.52 0.54 0.57 0.59 0.63 0.66
0.07 0.09 0.11 0.14 0.18 0.20 0.18 0.17 0.17 0.16 0.17 0.17 0.17 0.18 0.23 0.24 0.27 0.27 0.27 0.29 0.29 0.29 0.28 0.28 0.29 0.31 0.32 0.34 0.39 0.45 0.46 0.46 0.45 0.45 0.48 0.50 0.51 0.53 0.54 0.56 0.59 0.64 0.67
0.10 0.11 0.12 0.13 0.14 0.17 0.17 0.16 0.17 0.19 0.22 0.22 0.21 0.20 0.22 0.23 0.26 0.29 0.28 0.30 0.33 0.32 0.29 0.28 0.30 0.31 0.31 0.33 0.38 0.44 0.48 0.50 0.52 0.53 0.55 0.56 0.58 0.59 0.61 0.60 0.58 0.60 0.65
0.14 0.14 0.13 0.13 0.14 0.16 0.16 0.17 0.19 0.20 0.23 0.24 0.22 0.21 0.22 0.23 0.24 0.26 0.28 0.29 0.31 0.31 0.31 0.31 0.31 0.32 0.33 0.36 0.39 0.42 0.45 0.49 0.55 0.61 0.65 0.66 0.63 0.63 0.66 0.68 0.65 0.66 0.73
0.12 0.15 0.15 0.15 0.16 0.18 0.18 0.18 0.20 0.21 0.22 0.23 0.24 0.24 0.24 0.26 0.28 0.31 0.33 0.33 0.33 0.33 0.32 0.33 0.33 0.33 0.36 0.38 0.41 0.44 0.51 0.53 0.54 0.59 0.64 0.67 0.65 0.66 0.69 0.70 0.71 0.73 0.77
0.12 0.16 0.19 0.19 0.19 0.20 0.20 0.19 0.21 0.24 0.24 0.24 0.25 0.27 0.28 0.29 0.30 0.32 0.35 0.38 0.39 0.39 0.37 0.38 0.37 0.36 0.35 0.37 0.38 0.43 0.49 0.50 0.51 0.55 0.59 0.65 0.70 0.71 0.72 0.75 0.72 0.71 0.74

GEFSGL_prec_meanprecacc_204.txt.gz
Total_Precipitation_Accumulation
0.74 0.76 0.76 0.66 0.53 0.49 0.48 0.46 0.46 0.49 0.55 0.56 0.59 0.65 0.66 0.67 0.69 0.71 0.77 0.83 0.89 1.00 1.07 1.21 1.41 1.59 1.66 1.66 1.71 1.77 1.82 1.68 1.42 1.29 1.07 1.09 1.24 1.20 1.19 1.13 1.21 1.26 1.03
0.70 0.66 0.63 0.56 0.48 0.47 0.44 0.39 0.41 0.46 0.48 0.49 0.55 0.58 0.58 0.64 0.66 0.66 0.66 0.69 0.78 0.86 0.86 0.88 0.99 1.21 1.38 1.51 1.60 1.62 1.69 1.68 1.54 1.52 1.44 1.23 1.20 1.20 1.31 1.38 1.31 1.27 1.23
0.77 0.66 0.62 0.58 0.55 0.52 0.46 0.43 0.42 0.49 0.59 0.62 0.62 0.65 0.62 0.64 0.64 0.65 0.68 0.70 0.72 0.77 0.81 0.82 0.89 0.98 1.15 1.24 1.35 1.46 1.54 1.67 1.66 1.49 1.54 1.48 1.28 1.24 1.28 1.36 1.42 1.51 1.39
0.97 0.82 0.73 0.66 0.61 0.53 0.48 0.46 0.43 0.46 0.53 0.56 0.64 0.72 0.79 0.84 0.82 0.79 0.78 0.76 0.71 0.72 0.79 0.86 0.88 0.88 1.00 1.21 1.34 1.42 1.46 1.57 1.70 1.64 1.58 1.55 1.40 1.32 1.33 1.36 1.48 1.58 1.58
0.99 0.85 0.71 0.61 0.53 0.49 0.52 0.53 0.48 0.43 0.45 0.46 0.55 0.64 0.73 0.82 0.87 0.88 0.74 0.63 0.63 0.68 0.69 0.70 0.78 0.85 0.87 1.03 1.19 1.43 1.45 1.57 1.65 1.72 1.66 1.51 1.38 1.32 1.29 1.29 1.38 1.57 1.62
0.81 0.77 0.62 0.55 0.49 0.44 0.46 0.52 0.53 0.42 0.40 0.42 0.46 0.44 0.47 0.51 0.68 0.69 0.57 0.46 0.51 0.61 0.68 0.70 0.70 0.72 0.74 0.79 0.82 1.07 1.27 1.39 1.50 1.53 1.59 1.48 1.36 1.31 1.39 1.40 1.35 1.39 1.50
0.51 0.52 0.43 0.41 0.48 0.47 0.48 0.47 0.42 0.35 0.37 0.39 0.34 0.30 0.32 0.36 0.42 0.41 0.47 0.47 0.49 0.54 0.62 0.71 0.76 0.74 0.79 0.88 0.85 0.88 0.97 1.04 1.17 1.30 1.35 1.31 1.30 1.26 1.35 1.40 1.38 1.31 1.24
0.26 0.24 0.20 0.27 0.38 0.39 0.35 0.33 0.29 0.30 0.34 0.41 0.35 0.32 0.36 0.34 0.35 0.40 0.44 0.45 0.57 0.64 0.63 0.63 0.75 0.81 0.87 1.02 1.01 1.07 1.00 0.90 0.89 0.94 1.09 1.16 1.12 1.22 1.31 1.48 1.55 1.42 1.32
0.07 0.07 0.09 0.10 0.11 0.12 0.11 0.13 0.18 0.24 0.28 0.26 0.29 0.44 0.44 0.41 0.48 0.46 0.39 0.45 0.57 0.65 0.60 0.63 0.74 0.84 0.99 1.10 1.14 1.16 1.06 0.96 0.99 1.07 1.15 1.22 1.24 1.30 1.37 1.44 1.49 1.48 1.40
0.06 0.06 0.07 0.06 0.07 0.07 0.07 0.08 0.11 0.15 0.20 0.21 0.24 0.38 0.44 0.46 0.47 0.36 0.34 0.44 0.56 0.64 0.65 0.65 0.87 0.88 0.96 1.01 1.07 1.19 1.21 1.07 1.00 1.02 1.08 1.10 1.10 1.18 1.38 1.39 1.50 1.58 1.45
0.08 0.07 0.06 0.05 0.07 0.10 0.12 0.10 0.11 0.10 0.11 0.15 0.20 0.24 0.25 0.25 0.25 0.25 0.30 0.35 0.42 0.54 0.62 0.66 0.63 0.75 0.78 0.88 0.99 1.07 1.28 1.16 1.09 1.10 1.08 0.99 0.95 1.01 1.13 1.30 1.44 1.52 1.46
0.09 0.08 0.07 0.07 0.07 0.08 0.15 0.15 0.13 0.13 0.10 0.11 0.16 0.22 0.21 0.17 0.15 0.17 0.21 0.25 0.32 0.38 0.46 0.57 0.56 0.65 0.69 0.76 0.78 0.95 1.13 1.10 1.03 1.10 1.10 1.03 0.94 0.93 0.96 1.03 1.19 1.27 1.24
0.11 0.10 0.10 0.09 0.10 0.09 0.10 0.13 0.14 0.12 0.11 0.12 0.14 0.17 0.19 0.20 0.17 0.19 0.21 0.25 0.28 0.29 0.31 0.46 0.53 0.60 0.59 0.58 0.70 0.89 0.95 0.99 1.11 1.08 1.10 1.04 0.95 0.91 0.85 0.88 0.99 1.07 1.05
0.14 0.14 0.12 0.13 0.13 0.13 0.13 0.15 0.16 0.17 0.17 0.17 0.17 0.19 0.22 0.23 0.19 0.19 0.24 0.28 0.29 0.28 0.30 0.44 0.56 0.62 0.60 0.59 0.66 0.78 0.84 0.96 1.11 1.04 1.00 0.94 0.87 0.87 0.85 0.85 0.88 0.94 1.00
0.19 0.18 0.18 0.17 0.17 0.18 0.18 0.18 0.18 0.20 0.23 0.22 0.23 0.25 0.24 0.22 0.21 0.22 0.24 0.28 0.30 0.30 0.38 0.54 0.67 0.68 0.68 0.65 0.69 0.79 0.77 0.74 0.84 0.83 0.86 0.87 0.85 0.84 0.80 0.75 0.77 0.81 0.86
0.20 0.19 0.17 0.18 0.21 0.21 0.20 0.18 0.17 0.18 0.22 0.22 0.21 0.22 0.22 0.20 0.19 0.22 0.26 0.29 0.31 0.40 0.55 0.72 0.83 0.92 0.91 0.84 0.80 0.79 0.72 0.70 0.70 0.72 0.81 0.81 0.78 0.81 0.81 0.75 0.76 0.79 0.80
0.16 0.17 0.15 0.15 0.15 0.18 0.19 0.18 0.18 0.18 0.19 0.20 0.19 0.19 0.20 0.21 0.21 0.27 0.32 0.34 0.39 0.61 0.83 0.87 0.90 0.95 0.97 0.90 0.79 0.71 0.61 0.55 0.58 0.64 0.67 0.69 0.72 0.74 0.78 0.78 0.76 0.75 0.71
0.16 0.20 0.19 0.15 0.13 0.13 0.14 0.16 0.18 0.20 0.20 0.19 0.19 0.19 0.19 0.20 0.24 0.34 0.45 0.54 0.58 0.72 0.85 0.88 0.96 0.95 0.91 0.80 0.66 0.57 0.48 0.46 0.49 0.51 0.51 0.50 0.56 0.61 0.66 0.71 0.73 0.71 0.66
0.15 0.18 0.19 0.18 0.16 0.16 0.15 0.13 0.13 0.15 0.17 0.18 0.18 0.17 0.16 0.16 0.18 0.24 0.30 0.35 0.37 0.44 0.52 0.57 0.62 0.62 0.58 0.52 0.47 0.44 0.40 0.39 0.40 0.42 0.44 0.45 0.49 0.51 0.53 0.58 0.66 0.72 0.72
0.12 0.17 0.21 0.22 0.21 0.19 0.18 0.14 0.13 0.12 0.12 0.13 0.14 0.16 0.18 0.18 0.19 0.19 0.20 0.21 0.23 0.25 0.28 0.30 0.31 0.32 0.33 0.34 0.35 0.37 0.38 0.39 0.41 0.44 0.46 0.46 0.50 0.54 0.52 0.53 0.58 0.64 0.67
0.11 0.13 0.17 0.22 0.22 0.21 0.20 0.20 0.17 0.15 0.14 0.15 0.16 0.19 0.22 0.22 0.21 0.23 0.24 0.25 0.26 0.26 0.26 0.27 0.28 0.28 0.29 0.32 0.37 0.40 0.43 0.43 0.42 0.45 0.48 0.48 0.49 0.53 0.54 0.57 0.59 0.63 0.66
0.10 0.10 0.13 0.16 0.21 0.22 0.21 0.20 0.19 0.18 0.18 0.18 0.18 0.19 0.24 0.25 0.27 0.28 0.28 0.29 0.31 0.30 0.29 0.30 0.31 0.32 0.33 0.35 0.41 0.47 0.49 0.49 0.47 0.46 0.49 0.51 0.52 0.54 0.54 0.56 0.59 0.64 0.68
0.14 0.14 0.15 0.17 0.19 0.22 0.22 0.19 0.20 0.21 0.23 0.23 0.22 0.21 0.23 0.24 0.27 0.29 0.29 0.31 0.33 0.32 0.29 0.29 0.30 0.32 0.32 0.34 0.39 0.46 0.51 0.53 0.54 0.54 0.56 0.57 0.58 0.59 0.61 0.61 0.59 0.60 0.65
0.18 0.18 0.18 0.17 0.17 0.18 0.19 0.19 0.20 0.22 0.24 0.25 0.23 0.22 0.23 0.24 0.25 0.27 0.29 0.30 0.32 0.32 0.31 0.32 0.32 0.33 0.35 0.37 0.41 0.44 0.47 0.52 0.58 0.63 0.66 0.66 0.64 0.64 0.67 0.68 0.66 0.66 0.73
0.14 0.17 0.18 0.18 0.18 0.20 0.20 0.20 0.22 0.23 0.23 0.25 0.26 0.26 0.26 0.28 0.29 0.32 0.34 0.34 0.34 0.34 0.33 0.34 0.35 0.35 0.37 0.39 0.42 0.46 0.54 0.57 0.58 0.61 0.65 0.69 0.66 0.67 0.70 0.70 0.71 0.73 0.77
0.13 0.17 0.21 0.21 0.21 0.22 0.22 0.21 0.23 0.25 0.26 0.26 0.26 0.28 0.29 0.31 0.32 0.33 0.37 0.39 0.41 0.41 0.39 0.40 0.40 0.38 0.36 0.37 0.39 0.44 0.50 0.51 0.52 0.56 0.60 0.66 0.71 0.71 0.73 0.75 0.73 0.72 0.74

GEFSGL_prec_meanprecacc_210.txt.gz
Total_Precipitation_Accumulation
0.75 0.77 0.77 0.67 0.54 0.50 0.49 0.46 0.46 0.50 0.56 0.57 0.59 0.66 0.66 0.67 0.69 0.71 0.77 0.83 0.90 1.00 1.07 1.21 1.42 1.60 1.66 1.66 1.71 1.78 1.82 1.68 1.42 1.29 1.08 1.09 1.24 1.21 1.19 1.13 1.21 1.26 1.05
0.72 0.67 0.64 0.57 0.49 0.48 0.44 0.40 0.42 0.46 0.49 0.50 0.55 0.59 0.58 0.64 0.66 0.67 0.67 0.69 0.79 0.87 0.87 0.88 0.99 1.21 1.38 1.52 1.60 1.63 1.69 1.68 1.54 1.52 1.44 1.23 1.20 1.20 1.31 1.38 1.31 1.27 1.24
0.78 0.67 0.63 0.59 0.55 0.52 0.46 0.44 0.43 0.50 0.60 0.63 0.62 0.65 0.62 0.64 0.64 0.65 0.69 0.70 0.73 0.78 0.81 0.83 0.89 0.98 1.15 1.25 1.35 1.46 1.54 1.67 1.66 1.49 1.54 1.49 1.28 1.24 1.29 1.36 1.42 1.51 1.39
0.97 0.83 0.73 0.67 0.61 0.54 0.48 0.46 0.43 0.47 0.53 0.56 0.64 0.72 0.79 0.84 0.82 0.79 0.78 0.76 0.71 0.73 0.79 0.86 0.88 0.89 1.02 1.23 1.35 1.42 1.46 1.57 1.70 1.64 1.58 1.55 1.40 1.32 1.33 1.36 1.48 1.58 1.59
1.00 0.86 0.72 0.61 0.53 0.50 0.53 0.54 0.48 0.44 0.46 0.47 0.55 0.64 0.74 0.82 0.87 0.88 0.74 0.63 0.64 0.69 0.69 0.71 0.78 0.85 0.88 1.03 1.20 1.43 1.45 1.57 1.65 1.72 1.66 1.51 1.39 1.32 1.29 1.30 1.38 1.58 1.62
0.82 0.78 0.62 0.55 0.49 0.44 0.47 0.53 0.53 0.43 0.40 0.42 0.46 0.45 0.47 0.51 0.68 0.69 0.57 0.47 0.52 0.62 0.69 0.71 0.71 0.72 0.75 0.79 0.83 1.07 1.27 1.39 1.50 1.53 1.59 1.48 1.37 1.31 1.39 1.40 1.36 1.41 1.52
0.52 0.53 0.44 0.41 0.48 0.48 0.48 0.48 0.43 0.36 0.38 0.39 0.34 0.31 0.33 0.37 0.42 0.41 0.47 0.47 0.50 0.54 0.62 0.72 0.76 0.74 0.80 0.89 0.85 0.88 0.97 1.04 1.17 1.30 1.35 1.32 1.31 1.27 1.35 1.40 1.38 1.32 1.25
0.27 0.25 0.21 0.28 0.39 0.39 0.35 0.33 0.30 0.30 0.34 0.41 0.35 0.33 0.37 0.35 0.36 0.41 0.45 0.45 0.58 0.64 0.64 0.64 0.75 0.82 0.87 1.03 1.01 1.08 1.01 0.91 0.89 0.95 1.10 1.17 1.13 1.23 1.31 1.48 1.55 1.42 1.32
0.09 0.09 0.10 0.11 0.12 0.13 0.11 0.13 0.18 0.24 0.29 0.26 0.30 0.45 0.45 0.42 0.50 0.47 0.39 0.45 0.57 0.65 0.61 0.64 0.75 0.85 1.01 1.11 1.14 1.17 1.06 0.97 1.00 1.07 1.15 1.22 1.24 1.31 1.37 1.44 1.49 1.48 1.40
0.07 0.08 0.08 0.07 0.08 0.07 0.07 0.08 0.11 0.15 0.20 0.21 0.25 0.38 0.45 0.48 0.50 0.37 0.35 0.44 0.57 0.65 0.66 0.67 0.89 0.89 0.97 1.02 1.07 1.19 1.21 1.08 1.01 1.03 1.08 1.11 1.10 1.19 1.38 1.39 1.50 1.58 1.45
0.10 0.09 0.07 0.07 0.08 0.11 0.13 0.11 0.11 0.11 0.12 0.16 0.21 0.26 0.26 0.27 0.27 0.28 0.32 0.36 0.43 0.55 0.63 0.67 0.64 0.76 0.78 0.88 0.99 1.07 1.28 1.17 1.10 1.10 1.08 0.99 0.95 1.01 1.13 1.31 1.45 1.52 1.47
0.11 0.10 0.09 0.09 0.09 0.11 0.17 0.17 0.15 0.14 0.12 0.12 0.17 0.23 0.22 0.19 0.17 0.19 0.22 0.26 0.33 0.39 0.47 0.58 0.57 0.65 0.70 0.76 0.78 0.95 1.13 1.10 1.03 1.10 1.11 1.05 0.96 0.94 0.96 1.03 1.20 1.27 1.24
0.12 0.11 0.11 0.12 0.12 0.12 0.13 0.16 0.17 0.15 0.14 0.14 0.16 0.19 0.21 0.22 0.20 0.22 0.24 0.27 0.30 0.30 0.32 0.47 0.53 0.61 0.59 0.58 0.70 0.89 0.95 0.99 1.12 1.09 1.10 1.04 0.95 0.92 0.85 0.88 0.99 1.07 1.05
0.15 0.15 0.13 0.14 0.15 0.15 0.15 0.17 0.19 0.20 0.20 0.20 0.21 0.23 0.25 0.26 0.22 0.22 0.27 0.30 0.31 0.29 0.31 0.45 0.57 0.63 0.60 0.59 0.66 0.79 0.84 0.97 1.11 1.04 1.01 0.95 0.88 0.88 0.85 0.85 0.88 0.94 1.00
0.20 0.19 0.19 0.18 0.19 0.20 0.20 0.21 0.20 0.22 0.25 0.24 0.26 0.29 0.27 0.25 0.23 0.24 0.27 0.31 0.32 0.33 0.41 0.56 0.69 0.70 0.70 0.67 0.70 0.80 0.77 0.75 0.84 0.84 0.86 0.87 0.85 0.85 0.80 0.75 0.78 0.81 0.86
0.21 0.22 0.19 0.21 0.23 0.23 0.22 0.20 0.19 0.20 0.24 0.24 0.23 0.25 0.26 0.24 0.22 0.25 0.29 0.32 0.33 0.42 0.58 0.75 0.86 0.94 0.94 0.87 0.82 0.80 0.72 0.70 0.70 0.73 0.81 0.82 0.79 0.82 0.82 0.76 0.77 0.79 0.80
0.18 0.19 0.18 0.18 0.18 0.20 0.22 0.21 0.21 0.20 0.21 0.23 0.22 0.23 0.24 0.25 0.24 0.29 0.34 0.37 0.42 0.63 0.85 0.89 0.92 0.97 1.00 0.92 0.80 0.72 0.62 0.56 0.59 0.65 0.68 0.70 0.73 0.74 0.79 0.78 0.77 0.75 0.71
0.20 0.24 0.22 0.18 0.16 0.16 0.17 0.18 0.20 0.22 0.23 0.22 0.23 0.22 0.23 0.23 0.26 0.35 0.46 0.56 0.60 0.74 0.87 0.90 0.97 0.96 0.92 0.81 0.67 0.58 0.49 0.47 0.50 0.52 0.52 0.50 0.56 0.62 0.67 0.71 0.73 0.71 0.67
0.16 0.22 0.26 0.24 0.21 0.20 0.18 0.15 0.15 0.17 0.19 0.20 0.20 0.19 0.18 0.19 0.20 0.25 0.33 0.38 0.39 0.47 0.54 0.59 0.64 0.64 0.60 0.53 0.48 0.45 0.42 0.41 0.42 0.44 0.46 0.46 0.50 0.52 0.54 0.59 0.66 0.72 0.73
0.13 0.18 0.23 0.26 0.26 0.24 0.22 0.18 0.14 0.13 0.14 0.15 0.16 0.17 0.20 0.21 0.21 0.22 0.22 0.24 0.27 0.29 0.32 0.33 0.34 0.33 0.34 0.34 0.36 0.38 0.40 0.40 0.42 0.45 0.47 0.48 0.52 0.56 0.54 0.54 0.59 0.65 0.68
0.12 0.15 0.20 0.24 0.25 0.24 0.25 0.24 0.20 0.17 0.17 0.17 0.18 0.20 0.23 0.23 0.22 0.24 0.25 0.26 0.28 0.28 0.29 0.30 0.30 0.30 0.31 0.33 0.38 0.41 0.43 0.44 0.43 0.46 0.49 0.50 0.51 0.55 0.57 0.59 0.62 0.65 0.68
0.14 0.15 0.16 0.20 0.25 0.26 0.25 0.24 0.23 0.20 0.20 0.20 0.19 0.21 0.25 0.25 0.28 0.29 0.29 0.31 0.33 0.32 0.31 0.32 0.33 0.34 0.35 0.37 0.42 0.48 0.49 0.50 0.48 0.48 0.50 0.52 0.54 0.56 0.56 0.58 0.61 0.66 0.69
0.18 0.20 0.21 0.23 0.25 0.28 0.27 0.24 0.24 0.23 0.24 0.24 0.23 0.22 0.24 0.25 0.28 0.31 0.30 0.32 0.34 0.33 0.31 0.30 0.32 0.33 0.34 0.35 0.40 0.47 0.52 0.54 0.56 0.56 0.58 0.59 0.60 0.62 0.63 0.63 0.60 0.61 0.66
0.21 0.22 0.23 0.23 0.24 0.25 0.25 0.25 0.25 0.25 0.26 0.27 0.25 0.24 0.25 0.25 0.26 0.28 0.30 0.31 0.33 0.33 0.32 0.33 0.33 0.34 0.36 0.38 0.42 0.45 0.48 0.53 0.60 0.66 0.69 0.70 0.67 0.67 0.70 0.71 0.68 0.68 0.74
0.17 0.21 0.22 0.22 0.23 0.25 0.26 0.27 0.28 0.28 0.28 0.29 0.30 0.29 0.29 0.30 0.30 0.33 0.35 0.35 0.35 0.35 0.34 0.35 0.36 0.36 0.38 0.41 0.44 0.47 0.55 0.59 0.60 0.63 0.68 0.71 0.69 0.69 0.72 0.72 0.72 0.74 0.78
0.14 0.19 0.24 0.25 0.25 0.26 0.27 0.26 0.27 0.30 0.30 0.29 0.29 0.30 0.31 0.33 0.34 0.35 0.38 0.40 0.42 0.41 0.40 0.41 0.41 0.39 0.37 0.38 0.40 0.45 0.51 0.53 0.54 0.58 0.61 0.67 0.72 0.72 0.74 0.77 0.74 0.73 0.75

GEFSGL_prec_meanprecacc_216.txt.gz
Total_Precipitation_Accumulation
0.77 0.79 0.80 0.68 0.55 0.50 0.49 0.47 0.46 0.50 0.57 0.57 0.59 0.66 0.67 0.69 0.70 0.72 0.77 0.83 0.90 1.00 1.07 1.21 1.42 1.61 1.67 1.66 1.72 1.78 1.83 1.69 1.44 1.30 1.08 1.09 1.24 1.21 1.20 1.13 1.21 1.26 1.06
0.73 0.71 0.69 0.60 0.51 0.49 0.45 0.41 0.42 0.47 0.50 0.50 0.55 0.59 0.58 0.64 0.67 0.67 0.67 0.69 0.79 0.88 0.88 0.89 1.00 1.23 1.40 1.53 1.61 1.63 1.71 1.70 1.55 1.53 1.45 1.23 1.20 1.20 1.31 1.38 1.31 1.27 1.24
0.80 0.71 0.68 0.62 0.59 0.54 0.47 0.44 0.43 0.50 0.61 0.64 0.63 0.66 0.63 0.65 0.64 0.66 0.69 0.71 0.73 0.79 0.82 0.83 0.90 1.00 1.17 1.26 1.36 1.47 1.56 1.68 1.66 1.50 1.55 1.49 1.28 1.24 1.29 1.36 1.42 1.51 1.39
1.00 0.85 0.75 0.69 0.64 0.56 0.50 0.48 0.45 0.48 0.54 0.57 0.65 0.72 0.80 0.85 0.83 0.79 0.78 0.77 0.72 0.73 0.79 0.87 0.89 0.90 1.03 1.24 1.36 1.44 1.47 1.58 1.70 1.65 1.59 1.56 1.40 1.33 1.33 1.36 1.48 1.58 1.59
1.02 0.88 0.74 0.63 0.55 0.52 0.54 0.55 0.50 0.45 0.46 0.47 0.56 0.65 0.74 0.83 0.88 0.89 0.75 0.64 0.65 0.69 0.70 0.71 0.79 0.86 0.89 1.04 1.20 1.44 1.46 1.58 1.66 1.74 1.67 1.52 1.39 1.32 1.29 1.30 1.38 1.58 1.62
0.85 0.80 0.64 0.57 0.51 0.45 0.47 0.53 0.54 0.44 0.42 0.44 0.47 0.45 0.48 0.52 0.70 0.71 0.59 0.49 0.53 0.62 0.69 0.71 0.71 0.73 0.75 0.80 0.83 1.08 1.28 1.40 1.51 1.55 1.61 1.49 1.37 1.31 1.39 1.40 1.36 1.42 1.52
0.54 0.55 0.45 0.42 0.50 0.49 0.49 0.49 0.44 0.37 0.39 0.41 0.35 0.31 0.33 0.37 0.43 0.42 0.48 0.49 0.50 0.54 0.63 0.72 0.77 0.75 0.80 0.89 0.86 0.89 0.98 1.05 1.18 1.31 1.37 1.34 1.33 1.28 1.36 1.40 1.38 1.32 1.26
0.28 0.26 0.22 0.29 0.40 0.40 0.36 0.33 0.30 0.30 0.35 0.42 0.36 0.33 0.37 0.35 0.37 0.41 0.45 0.46 0.59 0.65 0.64 0.64 0.75 0.82 0.89 1.05 1.03 1.08 1.01 0.91 0.91 0.97 1.12 1.19 1.15 1.24 1.32 1.49 1.55 1.42 1.32
0.10 0.10 0.11 0.12 0.13 0.13 0.12 0.14 0.19 0.25 0.30 0.27 0.31 0.45 0.45 0.42 0.50 0.47 0.40 0.46 0.59 0.66 0.61 0.64 0.76 0.86 1.03 1.14 1.16 1.17 1.07 0.97 1.01 1.10 1.18 1.24 1.26 1.32 1.38 1.45 1.50 1.49 1.40
0.08 0.09 0.09 0.09 0.09 0.08 0.08 0.09 0.12 0.16 0.21 0.23 0.26 0.39 0.46 0.49 0.50 0.38 0.35 0.46 0.59 0.67 0.67 0.67 0.89 0.90 0.98 1.03 1.08 1.20 1.22 1.09 1.02 1.04 1.09 1.12 1.11 1.20 1.39 1.41 1.51 1.58 1.46
0.11 0.10 0.08 0.08 0.09 0.12 0.14 0.12 0.13 0.13 0.13 0.17 0.23 0.27 0.28 0.29 0.29 0.29 0.32 0.37 0.46 0.57 0.64 0.67 0.65 0.77 0.79 0.89 1.00 1.08 1.29 1.17 1.10 1.11 1.09 0.99 0.96 1.02 1.14 1.31 1.45 1.53 1.47
0.12 0.11 0.10 0.11 0.11 0.12 0.18 0.19 0.18 0.18 0.15 0.16 0.21 0.27 0.26 0.22 0.19 0.21 0.23 0.27 0.35 0.41 0.48 0.59 0.58 0.66 0.70 0.77 0.79 0.96 1.14 1.10 1.04 1.11 1.12 1.05 0.96 0.95 0.97 1.04 1.20 1.28 1.25
0.13 0.12 0.12 0.13 0.14 0.14 0.15 0.17 0.20 0.20 0.20 0.20 0.21 0.23 0.24 0.25 0.23 0.25 0.26 0.29 0.32 0.31 0.33 0.48 0.55 0.62 0.60 0.59 0.71 0.90 0.96 1.00 1.13 1.10 1.11 1.05 0.96 0.93 0.86 0.89 1.00 1.08 1.06
0.16 0.15 0.14 0.15 0.17 0.17 0.18 0.20 0.22 0.25 0.25 0.24 0.24 0.26 0.28 0.28 0.24 0.24 0.28 0.32 0.32 0.30 0.32 0.46 0.58 0.64 0.62 0.60 0.67 0.80 0.85 0.98 1.13 1.06 1.02 0.95 0.88 0.88 0.86 0.85 0.89 0.94 1.00
0.21 0.21 0.20 0.20 0.21 0.22 0.23 0.24 0.23 0.25 0.28 0.27 0.28 0.30 0.29 0.27 0.25 0.27 0.30 0.33 0.34 0.34 0.42 0.58 0.71 0.72 0.72 0.69 0.73 0.82 0.80 0.77 0.87 0.86 0.88 0.88 0.86 0.85 0.81 0.75 0.78 0.81 0.86
0.23 0.23 0.21 0.24 0.26 0.26 0.25 0.22 0.23 0.24 0.28 0.27 0.26 0.28 0.29 0.26 0.25 0.28 0.33 0.36 0.35 0.44 0.60 0.77 0.89 0.97 0.97 0.90 0.86 0.84 0.77 0.74 0.73 0.76 0.84 0.84 0.81 0.84 0.83 0.77 0.78 0.80 0.81
0.19 0.20 0.20 0.21 0.20 0.23 0.25 0.23 0.23 0.23 0.24 0.25 0.25 0.26 0.27 0.27 0.26 0.31 0.36 0.39 0.44 0.65 0.86 0.90 0.94 1.00 1.03 0.96 0.85 0.77 0.66 0.59 0.61 0.67 0.69 0.72 0.74 0.76 0.81 0.80 0.79 0.77 0.73
0.20 0.25 0.23 0.20 0.20 0.19 0.19 0.21 0.23 0.25 0.26 0.24 0.25 0.25 0.26 0.27 0.29 0.37 0.48 0.58 0.62 0.76 0.89 0.92 0.99 0.99 0.95 0.84 0.70 0.61 0.51 0.49 0.52 0.54 0.54 0.53 0.59 0.65 0.69 0.73 0.75 0.74 0.69
0.16 0.22 0.27 0.25 0.23 0.24 0.23 0.19 0.19 0.21 0.23 0.23 0.23 0.22 0.23 0.24 0.24 0.28 0.34 0.39 0.42 0.50 0.57 0.62 0.67 0.68 0.64 0.57 0.51 0.47 0.43 0.42 0.43 0.45 0.47 0.48 0.52 0.54 0.56 0.61 0.68 0.75 0.75
0.13 0.19 0.24 0.26 0.27 0.25 0.26 0.24 0.21 0.19 0.18 0.18 0.18 0.20 0.23 0.26 0.25 0.24 0.24 0.26 0.29 0.32 0.36 0.38 0.38 0.38 0.38 0.39 0.39 0.40 0.41 0.42 0.43 0.46 0.48 0.49 0.53 0.57 0.55 0.56 0.61 0.67 0.70
0.13 0.15 0.20 0.24 0.26 0.25 0.26 0.26 0.25 0.23 0.22 0.21 0.20 0.23 0.27 0.26 0.26 0.26 0.27 0.28 0.29 0.30 0.31 0.33 0.33 0.33 0.33 0.36 0.39 0.42 0.45 0.45 0.44 0.46 0.50 0.50 0.51 0.56 0.58 0.60 0.63 0.67 0.70
0.14 0.15 0.17 0.20 0.25 0.27 0.26 0.25 0.25 0.24 0.24 0.23 0.23 0.24 0.29 0.29 0.31 0.32 0.32 0.34 0.35 0.34 0.33 0.34 0.34 0.35 0.37 0.40 0.44 0.49 0.50 0.50 0.49 0.49 0.51 0.53 0.54 0.56 0.57 0.59 0.62 0.67 0.70
0.19 0.20 0.22 0.24 0.26 0.29 0.28 0.26 0.26 0.28 0.29 0.28 0.27 0.26 0.28 0.29 0.31 0.33 0.33 0.34 0.36 0.35 0.32 0.32 0.33 0.35 0.35 0.36 0.41 0.48 0.53 0.55 0.57 0.57 0.58 0.60 0.61 0.62 0.64 0.64 0.61 0.63 0.68
0.22 0.23 0.23 0.23 0.25 0.26 0.26 0.27 0.28 0.29 0.31 0.32 0.30 0.28 0.29 0.29 0.29 0.30 0.31 0.32 0.33 0.34 0.34 0.34 0.34 0.35 0.37 0.39 0.42 0.45 0.48 0.53 0.60 0.66 0.70 0.71 0.68 0.68 0.71 0.72 0.69 0.70 0.76
0.19 0.22 0.23 0.23 0.24 0.26 0.27 0.29 0.30 0.32 0.33 0.34 0.36 0.35 0.35 0.35 0.35 0.36 0.37 0.36 0.36 0.36 0.35 0.37 0.37 0.38 0.39 0.42 0.44 0.47 0.55 0.59 0.60 0.64 0.68 0.72 0.70 0.70 0.73 0.73 0.73 0.75 0.79
0.16 0.20 0.25 0.26 0.26 0.28 0.29 0.28 0.30 0.34 0.34 0.34 0.35 0.36 0.38 0.40 0.40 0.40 0.42 0.44 0.45 0.44 0.42 0.43 0.43 0.41 0.39 0.40 0.41 0.45 0.52 0.53 0.54 0.58 0.62 0.67 0.72 0.73 0.75 0.78 0.75 0.74 0.76

GEFSGL_prec_meanprecacc_222.txt.gz
Total_Precipitation_Accumulation
0.79 0.82 0.83 0.72 0.58 0.54 0.52 0.49 0.50 0.53 0.58 0.59 0.61 0.68 0.69 0.72 0.73 0.74 0.79 0.84 0.91 1.01 1.08 1.22 1.43 1.62 1.67 1.67 1.73 1.79 1.84 1.70 1.44 1.30 1.08 1.09 1.24 1.21 1.20 1.13 1.21 1.26 1.06
0.75 0.74 0.74 0.65 0.55 0.56 0.51 0.43 0.46 0.50 0.52 0.53 0.58 0.61 0.61 0.67 0.70 0.69 0.68 0.70 0.80 0.88 0.89 0.90 1.01 1.24 1.41 1.54 1.62 1.64 1.72 1.70 1.56 1.54 1.45 1.23 1.21 1.20 1.31 1.38 1.31 1.27 1.24
0.82 0.73 0.72 0.68 0.64 0.65 0.55 0.47 0.46 0.53 0.63 0.65 0.66 0.68 0.64 0.67 0.67 0.67 0.70 0.72 0.74 0.80 0.83 0.85 0.91 1.01 1.18 1.27 1.38 1.49 1.57 1.68 1.67 1.50 1.55 1.49 1.28 1.24 1.29 1.36 1.42 1.51 1.39
1.01 0.88 0.79 0.73 0.70 0.65 0.55 0.51 0.47 0.49 0.55 0.58 0.67 0.74 0.81 0.86 0.84 0.80 0.79 0.78 0.73 0.74 0.81 0.88 0.90 0.91 1.04 1.26 1.38 1.45 1.49 1.59 1.71 1.65 1.59 1.56 1.40 1.33 1.34 1.36 1.48 1.58 1.59
1.05 0.91 0.77 0.67 0.60 0.56 0.58 0.58 0.51 0.46 0.47 0.48 0.56 0.66 0.76 0.85 0.90 0.90 0.76 0.65 0.65 0.70 0.71 0.72 0.80 0.87 0.90 1.05 1.22 1.45 1.48 1.60 1.67 1.74 1.68 1.53 1.40 1.33 1.29 1.30 1.39 1.58 1.62
0.87 0.82 0.66 0.61 0.55 0.49 0.50 0.56 0.56 0.45 0.43 0.44 0.48 0.46 0.49 0.54 0.71 0.72 0.60 0.50 0.54 0.63 0.70 0.72 0.72 0.73 0.76 0.80 0.84 1.09 1.28 1.41 1.53 1.56 1.62 1.50 1.38 1.32 1.39 1.41 1.37 1.42 1.53
0.55 0.57 0.46 0.44 0.52 0.52 0.52 0.52 0.46 0.38 0.41 0.42 0.36 0.32 0.34 0.39 0.44 0.43 0.49 0.50 0.51 0.55 0.63 0.73 0.77 0.76 0.81 0.90 0.86 0.90 0.99 1.07 1.20 1.33 1.38 1.35 1.34 1.29 1.37 1.41 1.39 1.33 1.27
0.28 0.26 0.22 0.29 0.40 0.42 0.38 0.36 0.32 0.32 0.37 0.44 0.36 0.34 0.38 0.36 0.38 0.42 0.46 0.47 0.60 0.65 0.65 0.65 0.76 0.83 0.89 1.05 1.03 1.09 1.02 0.93 0.93 0.99 1.13 1.20 1.16 1.26 1.34 1.50 1.57 1.45 1.34
0.10 0.10 0.12 0.12 0.14 0.14 0.13 0.16 0.21 0.27 0.32 0.29 0.32 0.46 0.46 0.43 0.51 0.48 0.41 0.47 0.60 0.67 0.62 0.65 0.76 0.86 1.03 1.14 1.16 1.17 1.07 0.97 1.02 1.11 1.19 1.26 1.27 1.33 1.39 1.46 1.51 1.50 1.42
0.08 0.10 0.10 0.10 0.10 0.10 0.10 0.10 0.14 0.18 0.23 0.24 0.28 0.41 0.46 0.50 0.51 0.39 0.37 0.47 0.60 0.68 0.68 0.67 0.89 0.90 0.98 1.03 1.08 1.20 1.22 1.09 1.03 1.05 1.10 1.13 1.12 1.21 1.41 1.42 1.52 1.59 1.46
0.12 0.11 0.09 0.10 0.11 0.13 0.16 0.14 0.14 0.14 0.15 0.19 0.24 0.29 0.29 0.29 0.30 0.30 0.33 0.39 0.47 0.59 0.64 0.67 0.65 0.78 0.79 0.89 1.01 1.08 1.29 1.18 1.11 1.11 1.09 1.00 0.97 1.02 1.15 1.32 1.46 1.53 1.48
0.12 0.12 0.11 0.12 0.13 0.13 0.19 0.20 0.19 0.20 0.17 0.18 0.23 0.30 0.29 0.24 0.21 0.23 0.25 0.30 0.38 0.43 0.49 0.59 0.59 0.67 0.71 0.78 0.80 0.97 1.15 1.11 1.04 1.12 1.12 1.06 0.97 0.96 0.98 1.05 1.21 1.29 1.26
0.13 0.12 0.13 0.14 0.15 0.15 0.16 0.19 0.21 0.22 0.23 0.24 0.25 0.28 0.28 0.29 0.27 0.29 0.31 0.33 0.35 0.33 0.34 0.49 0.56 0.63 0.61 0.60 0.73 0.92 0.97 1.01 1.13 1.11 1.12 1.06 0.97 0.94 0.87 0.91 1.01 1.09 1.07
0.16 0.16 0.15 0.16 0.18 0.18 0.20 0.22 0.24 0.27 0.28 0.28 0.28 0.31 0.33 0.34 0.29 0.28 0.32 0.35 0.33 0.32 0.33 0.47 0.60 0.65 0.63 0.61 0.69 0.81 0.87 0.99 1.14 1.07 1.03 0.97 0.90 0.90 0.87 0.87 0.91 0.96 1.02
0.21 0.21 0.21 0.21 0.21 0.23 0.25 0.27 0.27 0.28 0.30 0.29 0.30 0.33 0.32 0.29 0.28 0.31 0.33 0.36 0.36 0.36 0.45 0.60 0.72 0.74 0.74 0.71 0.74 0.84 0.81 0.79 0.89 0.88 0.90 0.90 0.89 0.87 0.83 0.78 0.80 0.83 0.88
0.23 0.24 0.22 0.25 0.28 0.28 0.27 0.24 0.25 0.27 0.30 0.29 0.28 0.31 0.31 0.29 0.28 0.32 0.37 0.39 0.38 0.47 0.63 0.80 0.90 0.98 0.98 0.91 0.88 0.86 0.79 0.77 0.76 0.79 0.87 0.88 0.84 0.86 0.86 0.79 0.80 0.82 0.83
0.20 0.20 0.20 0.22 0.23 0.26 0.27 0.25 0.26 0.28 0.28 0.28 0.27 0.29 0.30 0.30 0.30 0.36 0.42 0.44 0.48 0.69 0.89 0.93 0.96 1.01 1.05 0.98 0.86 0.78 0.68 0.61 0.64 0.70 0.73 0.75 0.77 0.79 0.84 0.83 0.81 0.79 0.75
0.21 0.26 0.24 0.21 0.22 0.22 0.22 0.23 0.25 0.28 0.30 0.29 0.28 0.28 0.29 0.29 0.33 0.42 0.54 0.63 0.66 0.80 0.92 0.95 1.02 1.01 0.97 0.86 0.72 0.62 0.53 0.51 0.55 0.57 0.56 0.55 0.61 0.67 0.72 0.76 0.77 0.76 0.71
0.17 0.23 0.27 0.26 0.25 0.26 0.26 0.22 0.22 0.24 0.27 0.28 0.28 0.26 0.26 0.27 0.28 0.33 0.40 0.44 0.45 0.53 0.60 0.65 0.70 0.71 0.66 0.58 0.53 0.49 0.45 0.44 0.45 0.47 0.49 0.50 0.54 0.56 0.57 0.62 0.70 0.76 0.76
0.14 0.20 0.25 0.28 0.28 0.27 0.27 0.25 0.23 0.21 0.21 0.22 0.23 0.26 0.28 0.30 0.28 0.28 0.27 0.28 0.31 0.35 0.39 0.42 0.42 0.41 0.41 0.41 0.42 0.43 0.44 0.44 0.45 0.48 0.51 0.52 0.55 0.59 0.57 0.57 0.62 0.68 0.71
0.14 0.17 0.22 0.26 0.27 0.26 0.26 0.26 0.25 0.24 0.23 0.23 0.24 0.27 0.32 0.31 0.29 0.29 0.30 0.30 0.32 0.32 0.34 0.35 0.35 0.35 0.35 0.38 0.41 0.44 0.47 0.47 0.46 0.49 0.53 0.53 0.54 0.58 0.59 0.62 0.64 0.68 0.70
0.15 0.17 0.20 0.23 0.27 0.28 0.26 0.25 0.25 0.24 0.24 0.25 0.25 0.27 0.32 0.32 0.34 0.35 0.35 0.37 0.38 0.37 0.35 0.36 0.36 0.37 0.39 0.42 0.47 0.52 0.54 0.54 0.52 0.52 0.54 0.55 0.56 0.58 0.58 0.60 0.63 0.68 0.71
0.19 0.21 0.23 0.25 0.27 0.29 0.28 0.26 0.27 0.28 0.29 0.29 0.29 0.28 0.30 0.31 0.33 0.35 0.36 0.37 0.40 0.39 0.36 0.35 0.36 0.38 0.38 0.39 0.44 0.51 0.55 0.58 0.60 0.60 0.61 0.62 0.63 0.64 0.66 0.65 0.62 0.63 0.68
0.23 0.24 0.24 0.24 0.26 0.26 0.27 0.27 0.28 0.29 0.31 0.33 0.31 0.31 0.31 0.31 0.31 0.32 0.34 0.35 0.37 0.38 0.38 0.39 0.38 0.39 0.41 0.42 0.45 0.48 0.50 0.56 0.62 0.69 0.72 0.73 0.71 0.70 0.73 0.73 0.71 0.71 0.77
0.19 0.23 0.24 0.24 0.25 0.27 0.28 0.29 0.31 0.33 0.34 0.35 0.37 0.38 0.37 0.37 0.36 0.39 0.40 0.40 0.39 0.39 0.39 0.40 0.41 0.41 0.44 0.46 0.48 0.51 0.59 0.62 0.62 0.66 0.70 0.74 0.72 0.73 0.75 0.75 0.76 0.77 0.81
0.16 0.21 0.26 0.27 0.27 0.29 0.30 0.30 0.32 0.35 0.35 0.35 0.36 0.38 0.40 0.42 0.42 0.43 0.46 0.48 0.48 0.47 0.45 0.46 0.46 0.45 0.43 0.43 0.45 0.49 0.55 0.56 0.58 0.61 0.65 0.69 0.74 0.75 0.77 0.80 0.78 0.76 0.78

GEFSGL_prec_meanprecacc_228.txt.gz
Total_Precipitation_Accumulation
0.80 0.83 0.84 0.73 0.60 0.56 0.53 0.49 0.51 0.54 0.59 0.59 0.62 0.68 0.70 0.73 0.75 0.76 0.80 0.87 0.94 1.04 1.11 1.25 1.46 1.64 1.69 1.69 1.74 1.80 1.84 1.70 1.45 1.31 1.08 1.09 1.24 1.21 1.20 1.13 1.21 1.26 1.06
0.76 0.75 0.75 0.67 0.57 0.58 0.52 0.44 0.47 0.52 0.54 0.54 0.58 0.62 0.62 0.68 0.71 0.70 0.69 0.72 0.82 0.91 0.92 0.93 1.03 1.27 1.44 1.56 1.63 1.65 1.72 1.70 1.56 1.54 1.45 1.24 1.21 1.20 1.32 1.38 1.31 1.27 1.24
0.83 0.74 0.74 0.69 0.67 0.69 0.58 0.49 0.48 0.55 0.66 0.67 0.67 0.69 0.65 0.68 0.68 0.68 0.71 0.73 0.75 0.82 0.85 0.86 0.92 1.02 1.19 1.28 1.38 1.49 1.57 1.68 1.67 1.51 1.56 1.49 1.28 1.25 1.29 1.37 1.42 1.51 1.39
1.02 0.89 0.81 0.75 0.74 0.72 0.60 0.54 0.50 0.54 0.59 0.59 0.67 0.74 0.82 0.87 0.85 0.81 0.79 0.78 0.73 0.75 0.82 0.89 0.91 0.92 1.05 1.26 1.38 1.45 1.49 1.60 1.71 1.66 1.60 1.57 1.40 1.33 1.34 1.36 1.49 1.58 1.59
1.06 0.93 0.80 0.70 0.65 0.62 0.61 0.62 0.56 0.51 0.50 0.49 0.57 0.66 0.76 0.85 0.90 0.90 0.76 0.65 0.66 0.71 0.71 0.72 0.80 0.87 0.91 1.06 1.22 1.46 1.48 1.60 1.67 1.74 1.68 1.53 1.40 1.33 1.29 1.30 1.39 1.58 1.63
0.88 0.84 0.70 0.66 0.58 0.51 0.56 0.64 0.62 0.50 0.45 0.46 0.49 0.46 0.49 0.54 0.72 0.72 0.60 0.50 0.54 0.63 0.70 0.72 0.72 0.74 0.77 0.81 0.84 1.09 1.29 1.42 1.53 1.56 1.62 1.51 1.39 1.33 1.40 1.41 1.37 1.43 1.53
0.56 0.58 0.47 0.46 0.55 0.57 0.59 0.58 0.51 0.41 0.42 0.43 0.38 0.32 0.34 0.39 0.45 0.44 0.49 0.50 0.52 0.56 0.64 0.73 0.78 0.76 0.82 0.90 0.87 0.90 1.00 1.07 1.20 1.33 1.38 1.35 1.35 1.30 1.38 1.42 1.40 1.34 1.27
0.29 0.27 0.23 0.30 0.42 0.44 0.41 0.39 0.34 0.34 0.39 0.45 0.38 0.35 0.39 0.36 0.38 0.42 0.46 0.47 0.60 0.66 0.65 0.65 0.77 0.83 0.90 1.06 1.04 1.09 1.02 0.93 0.94 0.99 1.13 1.21 1.17 1.27 1.35 1.52 1.58 1.46 1.35
0.11 0.11 0.12 0.13 0.15 0.16 0.14 0.17 0.23 0.29 0.34 0.31 0.33 0.48 0.47 0.44 0.52 0.48 0.41 0.47 0.60 0.68 0.63 0.65 0.77 0.87 1.04 1.15 1.17 1.18 1.07 0.98 1.02 1.11 1.19 1.26 1.28 1.34 1.40 1.47 1.53 1.51 1.42
0.09 0.10 0.11 0.10 0.11 0.10 0.11 0.12 0.15 0.19 0.25 0.26 0.29 0.42 0.47 0.51 0.53 0.41 0.38 0.48 0.61 0.69 0.69 0.68 0.90 0.91 1.00 1.05 1.10 1.22 1.23 1.10 1.03 1.05 1.10 1.13 1.12 1.22 1.42 1.43 1.53 1.61 1.48
0.12 0.11 0.10 0.10 0.12 0.15 0.18 0.16 0.17 0.16 0.18 0.20 0.24 0.29 0.30 0.30 0.31 0.32 0.35 0.40 0.50 0.61 0.66 0.69 0.67 0.80 0.81 0.91 1.02 1.09 1.31 1.19 1.12 1.12 1.10 1.01 0.97 1.03 1.16 1.33 1.47 1.55 1.49
0.13 0.12 0.11 0.13 0.14 0.16 0.22 0.23 0.22 0.21 0.19 0.19 0.24 0.30 0.30 0.26 0.22 0.24 0.27 0.32 0.41 0.46 0.51 0.61 0.60 0.69 0.73 0.79 0.81 0.98 1.16 1.12 1.06 1.13 1.14 1.07 0.98 0.97 1.00 1.06 1.22 1.30 1.27
0.13 0.13 0.14 0.15 0.17 0.17 0.19 0.20 0.23 0.23 0.24 0.24 0.26 0.29 0.29 0.30 0.28 0.30 0.32 0.35 0.38 0.36 0.36 0.51 0.57 0.65 0.63 0.62 0.74 0.93 0.98 1.02 1.15 1.12 1.13 1.07 0.98 0.95 0.89 0.93 1.03 1.10 1.08
0.17 0.16 0.16 0.17 0.20 0.22 0.23 0.24 0.26 0.29 0.29 0.29 0.29 0.31 0.34 0.34 0.30 0.29 0.33 0.36 0.35 0.33 0.35 0.49 0.61 0.67 0.64 0.63 0.70 0.82 0.88 1.01 1.16 1.08 1.04 0.98 0.91 0.92 0.91 0.90 0.92 0.98 1.04
0.22 0.22 0.21 0.21 0.22 0.25 0.27 0.29 0.29 0.30 0.32 0.31 0.31 0.33 0.32 0.30 0.29 0.32 0.35 0.37 0.37 0.38 0.46 0.61 0.73 0.75 0.75 0.72 0.76 0.85 0.83 0.81 0.91 0.90 0.92 0.92 0.91 0.90 0.86 0.80 0.83 0.86 0.91
0.24 0.24 0.22 0.25 0.29 0.29 0.28 0.25 0.27 0.29 0.31 0.30 0.29 0.32 0.32 0.30 0.30 0.33 0.38 0.41 0.40 0.49 0.65 0.81 0.91 0.99 0.99 0.93 0.89 0.88 0.81 0.79 0.78 0.81 0.89 0.90 0.87 0.89 0.88 0.82 0.83 0.86 0.86
0.20 0.21 0.21 0.22 0.23 0.27 0.28 0.26 0.28 0.29 0.30 0.29 0.28 0.30 0.31 0.31 0.31 0.37 0.44 0.46 0.51 0.71 0.91 0.94 0.97 1.02 1.06 0.99 0.88 0.80 0.69 0.64 0.67 0.73 0.76 0.77 0.80 0.82 0.86 0.85 0.84 0.82 0.78
0.21 0.26 0.25 0.22 0.22 0.23 0.23 0.24 0.28 0.30 0.32 0.31 0.30 0.29 0.30 0.30 0.34 0.44 0.56 0.65 0.69 0.82 0.94 0.97 1.03 1.02 0.98 0.87 0.73 0.64 0.55 0.53 0.57 0.60 0.59 0.58 0.64 0.70 0.74 0.78 0.80 0.78 0.74
0.18 0.24 0.28 0.27 0.25 0.27 0.27 0.23 0.23 0.26 0.29 0.30 0.30 0.28 0.27 0.28 0.29 0.34 0.42 0.46 0.47 0.55 0.63 0.67 0.71 0.72 0.67 0.60 0.54 0.51 0.47 0.45 0.47 0.49 0.52 0.53 0.58 0.59 0.60 0.65 0.73 0.80 0.80
0.16 0.21 0.26 0.29 0.29 0.28 0.28 0.26 0.24 0.22 0.22 0.23 0.25 0.28 0.31 0.33 0.31 0.30 0.29 0.30 0.34 0.37 0.42 0.44 0.45 0.42 0.41 0.42 0.43 0.44 0.45 0.45 0.47 0.50 0.53 0.54 0.59 0.63 0.60 0.60 0.65 0.71 0.74
0.15 0.18 0.24 0.29 0.29 0.27 0.27 0.27 0.26 0.25 0.24 0.24 0.24 0.29 0.34 0.33 0.32 0.32 0.33 0.33 0.34 0.35 0.37 0.38 0.37 0.36 0.36 0.38 0.43 0.46 0.49 0.49 0.48 0.51 0.55 0.55 0.57 0.61 0.63 0.65 0.67 0.70 0.73
0.17 0.18 0.21 0.25 0.28 0.30 0.28 0.27 0.26 0.25 0.25 0.26 0.26 0.27 0.33 0.34 0.37 0.37 0.38 0.39 0.40 0.39 0.38 0.39 0.38 0.38 0.40 0.43 0.48 0.54 0.56 0.56 0.55 0.54 0.57 0.58 0.59 0.61 0.61 0.64 0.66 0.71 0.73
0.20 0.22 0.24 0.26 0.28 0.30 0.29 0.27 0.28 0.29 0.30 0.30 0.30 0.29 0.31 0.32 0.35 0.37 0.37 0.38 0.41 0.41 0.38 0.37 0.39 0.40 0.40 0.41 0.45 0.52 0.56 0.59 0.61 0.62 0.63 0.64 0.65 0.66 0.69 0.68 0.65 0.66 0.71
0.23 0.24 0.25 0.25 0.27 0.27 0.28 0.28 0.29 0.30 0.32 0.33 0.32 0.31 0.32 0.32 0.33 0.35 0.35 0.35 0.37 0.39 0.39 0.40 0.40 0.41 0.42 0.44 0.47 0.49 0.52 0.57 0.64 0.70 0.74 0.75 0.73 0.72 0.75 0.76 0.74 0.74 0.80
0.20 0.23 0.24 0.25 0.25 0.28 0.29 0.30 0.32 0.34 0.35 0.37 0.39 0.39 0.38 0.38 0.37 0.40 0.41 0.40 0.40 0.40 0.40 0.41 0.42 0.43 0.45 0.48 0.50 0.52 0.61 0.64 0.64 0.67 0.72 0.76 0.74 0.75 0.78 0.78 0.78 0.80 0.84
0.17 0.22 0.26 0.27 0.28 0.30 0.31 0.31 0.33 0.37 0.37 0.37 0.38 0.40 0.42 0.44 0.43 0.44 0.47 0.49 0.49 0.48 0.46 0.47 0.47 0.46 0.45 0.45 0.47 0.51 0.58 0.59 0.60 0.64 0.67 0.72 0.77 0.77 0.79 0.82 0.80 0.78 0.81

GEFSGL_prec_meanprecacc_234.txt.gz
Total_Precipitation_Accumulation
0.80 0.84 0.85 0.74 0.60 0.56 0.53 0.50 0.51 0.54 0.59 0.60 0.62 0.69 0.72 0.75 0.77 0.77 0.82 0.89 0.96 1.06 1.15 1.29 1.49 1.67 1.75 1.75 1.78 1.83 1.87 1.74 1.47 1.32 1.09 1.09 1.25 1.22 1.20 1.14 1.22 1.27 1.06
0.76 0.76 0.77 0.70 0.59 0.59 0.53 0.45 0.47 0.52 0.54 0.54 0.59 0.62 0.63 0.69 0.72 0.71 0.70 0.73 0.83 0.92 0.94 0.96 1.07 1.30 1.47 1.60 1.66 1.68 1.75 1.73 1.58 1.55 1.45 1.24 1.21 1.21 1.32 1.39 1.31 1.28 1.24
0.84 0.76 0.77 0.72 0.69 0.71 0.60 0.50 0.49 0.56 0.67 0.67 0.67 0.69 0.66 0.69 0.69 0.69 0.72 0.74 0.76 0.83 0.86 0.88 0.96 1.07 1.24 1.32 1.40 1.50 1.58 1.69 1.68 1.51 1.56 1.49 1.29 1.25 1.29 1.37 1.42 1.51 1.40
1.04 0.92 0.85 0.79 0.77 0.74 0.62 0.54 0.50 0.55 0.59 0.60 0.68 0.75 0.83 0.88 0.86 0.81 0.81 0.79 0.74 0.76 0.83 0.90 0.93 0.96 1.12 1.32 1.41 1.47 1.50 1.60 1.72 1.66 1.60 1.57 1.41 1.34 1.34 1.37 1.49 1.59 1.59
1.08 0.95 0.84 0.75 0.68 0.64 0.63 0.63 0.57 0.52 0.51 0.51 0.58 0.67 0.77 0.87 0.91 0.91 0.78 0.66 0.67 0.72 0.72 0.73 0.81 0.89 0.96 1.12 1.26 1.48 1.50 1.61 1.68 1.75 1.69 1.54 1.40 1.33 1.30 1.30 1.39 1.59 1.63
0.89 0.86 0.73 0.70 0.62 0.54 0.57 0.65 0.64 0.51 0.46 0.47 0.51 0.48 0.51 0.55 0.73 0.73 0.62 0.51 0.55 0.64 0.70 0.73 0.73 0.75 0.79 0.84 0.87 1.12 1.31 1.43 1.54 1.57 1.63 1.52 1.39 1.33 1.41 1.42 1.38 1.43 1.53
0.57 0.59 0.50 0.50 0.59 0.61 0.62 0.61 0.54 0.44 0.44 0.44 0.39 0.34 0.35 0.40 0.46 0.44 0.50 0.51 0.52 0.56 0.64 0.73 0.78 0.77 0.83 0.92 0.88 0.92 1.02 1.09 1.22 1.34 1.39 1.36 1.35 1.31 1.39 1.43 1.41 1.35 1.28
0.30 0.28 0.25 0.33 0.47 0.49 0.45 0.42 0.36 0.36 0.41 0.46 0.39 0.36 0.40 0.38 0.40 0.43 0.47 0.48 0.61 0.66 0.66 0.66 0.77 0.84 0.91 1.08 1.05 1.10 1.03 0.94 0.95 1.00 1.14 1.21 1.18 1.27 1.36 1.52 1.59 1.47 1.35
0.11 0.11 0.14 0.15 0.18 0.19 0.17 0.18 0.24 0.30 0.35 0.32 0.35 0.49 0.48 0.46 0.53 0.49 0.42 0.48 0.61 0.69 0.63 0.66 0.78 0.88 1.05 1.16 1.18 1.19 1.08 0.99 1.03 1.12 1.20 1.27 1.29 1.35 1.41 1.48 1.54 1.53 1.44
0.10 0.10 0.11 0.12 0.13 0.13 0.13 0.14 0.17 0.20 0.26 0.28 0.31 0.43 0.48 0.52 0.55 0.42 0.39 0.48 0.61 0.69 0.69 0.69 0.91 0.92 1.01 1.06 1.11 1.23 1.25 1.11 1.04 1.07 1.11 1.14 1.13 1.23 1.43 1.44 1.55 1.63 1.50
0.13 0.12 0.10 0.11 0.13 0.18 0.22 0.20 0.19 0.18 0.19 0.22 0.26 0.30 0.31 0.32 0.33 0.33 0.36 0.40 0.50 0.61 0.66 0.69 0.67 0.81 0.82 0.92 1.03 1.10 1.32 1.21 1.13 1.14 1.12 1.02 0.99 1.05 1.18 1.35 1.49 1.57 1.52
0.13 0.12 0.12 0.13 0.15 0.17 0.25 0.26 0.23 0.23 0.20 0.20 0.25 0.32 0.31 0.26 0.23 0.24 0.27 0.32 0.42 0.46 0.52 0.61 0.61 0.70 0.73 0.80 0.82 0.99 1.17 1.14 1.07 1.15 1.16 1.09 1.00 0.99 1.02 1.09 1.25 1.33 1.29
0.13 0.13 0.14 0.15 0.17 0.18 0.20 0.23 0.25 0.24 0.25 0.26 0.27 0.30 0.30 0.31 0.29 0.30 0.32 0.35 0.38 0.37 0.36 0.51 0.58 0.66 0.63 0.62 0.75 0.94 1.00 1.03 1.17 1.14 1.15 1.09 1.00 0.97 0.92 0.97 1.08 1.15 1.12
0.17 0.16 0.16 0.17 0.20 0.22 0.25 0.26 0.28 0.30 0.30 0.30 0.31 0.33 0.35 0.35 0.31 0.30 0.33 0.36 0.36 0.34 0.36 0.50 0.62 0.68 0.66 0.63 0.70 0.83 0.88 1.02 1.17 1.10 1.06 1.00 0.93 0.95 0.94 0.93 0.96 1.02 1.08
0.22 0.22 0.21 0.21 0.22 0.26 0.29 0.32 0.30 0.31 0.33 0.32 0.33 0.36 0.34 0.31 0.30 0.33 0.35 0.38 0.39 0.39 0.47 0.62 0.75 0.76 0.77 0.73 0.76 0.86 0.83 0.81 0.91 0.91 0.93 0.94 0.94 0.93 0.88 0.83 0.86 0.90 0.95
0.24 0.24 0.22 0.25 0.29 0.29 0.29 0.28 0.29 0.30 0.33 0.32 0.31 0.34 0.34 0.32 0.32 0.35 0.39 0.42 0.42 0.50 0.66 0.82 0.92 1.00 1.00 0.94 0.89 0.88 0.81 0.79 0.79 0.82 0.91 0.92 0.89 0.91 0.91 0.85 0.86 0.89 0.90
0.20 0.21 0.21 0.23 0.24 0.27 0.28 0.27 0.29 0.30 0.31 0.31 0.30 0.31 0.32 0.33 0.33 0.40 0.46 0.48 0.52 0.72 0.91 0.95 0.99 1.04 1.07 1.00 0.89 0.80 0.70 0.65 0.68 0.75 0.77 0.79 0.82 0.85 0.90 0.89 0.88 0.86 0.82
0.21 0.27 0.25 0.22 0.23 0.23 0.23 0.25 0.28 0.31 0.33 0.32 0.31 0.30 0.31 0.32 0.36 0.46 0.59 0.67 0.70 0.83 0.95 0.98 1.05 1.04 1.00 0.88 0.74 0.65 0.56 0.54 0.58 0.61 0.61 0.59 0.66 0.72 0.77 0.81 0.83 0.82 0.78
0.18 0.24 0.28 0.27 0.26 0.27 0.27 0.23 0.24 0.27 0.29 0.30 0.31 0.29 0.28 0.30 0.32 0.38 0.46 0.49 0.49 0.56 0.64 0.68 0.72 0.74 0.69 0.61 0.55 0.52 0.48 0.46 0.48 0.50 0.53 0.54 0.60 0.62 0.63 0.68 0.76 0.84 0.84
0.16 0.21 0.26 0.29 0.30 0.28 0.29 0.27 0.24 0.22 0.22 0.24 0.25 0.28 0.31 0.34 0.34 0.34 0.33 0.33 0.36 0.39 0.44 0.46 0.46 0.44 0.44 0.44 0.45 0.45 0.46 0.46 0.47 0.50 0.53 0.56 0.60 0.65 0.62 0.63 0.68 0.74 0.78
0.16 0.19 0.24 0.29 0.29 0.28 0.28 0.28 0.26 0.25 0.24 0.25 0.25 0.29 0.34 0.34 0.33 0.34 0.35 0.36 0.36 0.38 0.40 0.41 0.40 0.39 0.39 0.42 0.45 0.48 0.51 0.51 0.50 0.53 0.56 0.57 0.58 0.63 0.65 0.67 0.69 0.73 0.76
0.17 0.19 0.22 0.25 0.29 0.30 0.28 0.27 0.27 0.25 0.25 0.26 0.27 0.28 0.34 0.35 0.37 0.39 0.39 0.41 0.42 0.42 0.41 0.42 0.42 0.42 0.43 0.46 0.51 0.56 0.58 0.59 0.57 0.56 0.58 0.60 0.60 0.62 0.63 0.66 0.68 0.73 0.76
0.21 0.23 0.25 0.27 0.28 0.31 0.30 0.28 0.29 0.30 0.31 0.31 0.31 0.30 0.32 0.33 0.37 0.39 0.38 0.40 0.43 0.42 0.39 0.38 0.40 0.43 0.43 0.43 0.47 0.54 0.58 0.60 0.62 0.63 0.65 0.66 0.66 0.68 0.70 0.70 0.68 0.69 0.73
0.24 0.26 0.26 0.26 0.27 0.28 0.28 0.29 0.30 0.31 0.33 0.34 0.33 0.32 0.32 0.33 0.35 0.37 0.37 0.37 0.39 0.41 0.41 0.42 0.41 0.42 0.45 0.47 0.50 0.52 0.54 0.58 0.65 0.71 0.75 0.77 0.75 0.74 0.77 0.78 0.76 0.76 0.82
0.21 0.24 0.25 0.25 0.26 0.29 0.30 0.31 0.33 0.35 0.36 0.37 0.39 0.39 0.39 0.38 0.38 0.42 0.43 0.42 0.41 0.42 0.42 0.43 0.44 0.45 0.48 0.50 0.52 0.55 0.63 0.66 0.66 0.68 0.72 0.77 0.75 0.76 0.80 0.80 0.80 0.82 0.86
0.18 0.23 0.28 0.28 0.29 0.31 0.33 0.33 0.35 0.38 0.38 0.38 0.39 0.41 0.42 0.44 0.44 0.44 0.48 0.50 0.51 0.50 0.48 0.50 0.50 0.48 0.46 0.47 0.48 0.52 0.59 0.60 0.61 0.65 0.68 0.73 0.78 0.78 0.81 0.84 0.82 0.81 0.83

GEFSGL_prec_meanprecacc_240.txt.gz
Total_Precipitation_Accumulation
0.82 0.85 0.86 0.75 0.61 0.57 0.54 0.50 0.51 0.55 0.59 0.60 0.62 0.69 0.72 0.75 0.77 0.79 0.84 0.91 0.98 1.09 1.16 1.31 1.51 1.69 1.77 1.77 1.81 1.86 1.91 1.78 1.52 1.35 1.11 1.11 1.26 1.23 1.21 1.15 1.22 1.27 1.06
0.77 0.77 0.78 0.71 0.60 0.60 0.53 0.45 0.47 0.53 0.55 0.54 0.59 0.62 0.63 0.70 0.73 0.72 0.71 0.75 0.86 0.94 0.95 0.97 1.08 1.31 1.48 1.61 1.69 1.71 1.78 1.76 1.61 1.57 1.48 1.27 1.23 1.22 1.33 1.40 1.32 1.28 1.24
0.85 0.77 0.78 0.74 0.71 0.72 0.61 0.51 0.49 0.56 0.67 0.68 0.67 0.70 0.67 0.69 0.70 0.70 0.73 0.76 0.78 0.84 0.87 0.89 0.98 1.08 1.25 1.33 1.42 1.53 1.60 1.72 1.70 1.53 1.58 1.53 1.32 1.28 1.31 1.38 1.43 1.52 1.40
1.04 0.93 0.86 0.81 0.78 0.75 0.63 0.55 0.51 0.55 0.60 0.60 0.69 0.76 0.84 0.89 0.87 0.82 0.82 0.82 0.77 0.79 0.85 0.92 0.94 0.97 1.13 1.34 1.43 1.49 1.52 1.63 1.75 1.69 1.62 1.59 1.43 1.36 1.36 1.38 1.50 1.60 1.61
1.08 0.96 0.85 0.77 0.70 0.65 0.64 0.64 0.58 0.52 0.52 0.51 0.59 0.68 0.78 0.88 0.92 0.91 0.79 0.69 0.69 0.74 0.74 0.75 0.82 0.90 0.97 1.16 1.29 1.51 1.52 1.63 1.71 1.78 1.71 1.56 1.42 1.36 1.32 1.31 1.40 1.59 1.64
0.90 0.86 0.73 0.71 0.64 0.56 0.58 0.66 0.65 0.53 0.47 0.48 0.51 0.49 0.52 0.56 0.74 0.75 0.64 0.53 0.57 0.66 0.72 0.74 0.73 0.76 0.80 0.87 0.91 1.15 1.34 1.46 1.57 1.59 1.65 1.54 1.42 1.36 1.43 1.43 1.39 1.44 1.54
0.58 0.60 0.51 0.51 0.61 0.63 0.65 0.63 0.56 0.45 0.45 0.45 0.40 0.35 0.37 0.41 0.48 0.47 0.53 0.52 0.54 0.58 0.66 0.74 0.79 0.77 0.84 0.93 0.91 0.96 1.06 1.12 1.25 1.37 1.42 1.39 1.38 1.33 1.41 1.45 1.42 1.36 1.29
0.30 0.29 0.26 0.34 0.48 0.50 0.47 0.44 0.39 0.38 0.42 0.48 0.40 0.38 0.42 0.40 0.42 0.46 0.50 0.51 0.63 0.69 0.69 0.68 0.78 0.85 0.92 1.09 1.07 1.13 1.08 0.98 0.98 1.04 1.18 1.25 1.21 1.30 1.37 1.54 1.60 1.48 1.36
0.12 0.12 0.14 0.16 0.19 0.20 0.18 0.20 0.27 0.33 0.38 0.34 0.37 0.51 0.50 0.48 0.56 0.52 0.45 0.51 0.64 0.72 0.66 0.68 0.78 0.88 1.06 1.18 1.20 1.21 1.12 1.02 1.06 1.17 1.25 1.31 1.32 1.37 1.43 1.50 1.56 1.55 1.46
0.10 0.11 0.12 0.12 0.14 0.14 0.15 0.16 0.19 0.23 0.28 0.30 0.33 0.46 0.50 0.55 0.57 0.44 0.41 0.51 0.64 0.73 0.72 0.71 0.92 0.93 1.02 1.07 1.12 1.25 1.27 1.13 1.06 1.09 1.14 1.17 1.16 1.24 1.45 1.47 1.57 1.66 1.53
0.13 0.12 0.11 0.11 0.13 0.18 0.23 0.21 0.20 0.20 0.21 0.24 0.27 0.32 0.34 0.35 0.35 0.35 0.37 0.42 0.53 0.66 0.69 0.71 0.68 0.82 0.83 0.93 1.05 1.12 1.34 1.22 1.14 1.15 1.12 1.04 1.01 1.06 1.19 1.37 1.52 1.60 1.55
0.13 0.13 0.12 0.13 0.15 0.18 0.27 0.28 0.24 0.23 0.20 0.21 0.26 0.33 0.34 0.28 0.25 0.26 0.30 0.35 0.46 0.50 0.54 0.63 0.62 0.71 0.75 0.81 0.83 1.01 1.18 1.15 1.08 1.16 1.17 1.10 1.01 1.01 1.04 1.11 1.28 1.36 1.33
0.14 0.13 0.14 0.15 0.18 0.19 0.22 0.24 0.26 0.24 0.25 0.26 0.28 0.31 0.32 0.32 0.30 0.32 0.35 0.38 0.41 0.39 0.38 0.53 0.60 0.67 0.65 0.64 0.76 0.95 1.01 1.04 1.18 1.15 1.17 1.10 1.01 0.99 0.94 0.99 1.11 1.18 1.16
0.17 0.17 0.16 0.17 0.20 0.23 0.26 0.27 0.29 0.30 0.31 0.31 0.31 0.34 0.37 0.37 0.33 0.31 0.35 0.37 0.37 0.36 0.37 0.52 0.64 0.69 0.67 0.65 0.72 0.84 0.89 1.02 1.18 1.11 1.07 1.01 0.94 0.96 0.96 0.95 0.99 1.06 1.12
0.22 0.22 0.22 0.22 0.22 0.26 0.31 0.33 0.31 0.32 0.34 0.32 0.34 0.37 0.36 0.33 0.33 0.34 0.36 0.39 0.40 0.41 0.49 0.65 0.77 0.78 0.79 0.76 0.79 0.88 0.85 0.82 0.92 0.92 0.94 0.95 0.94 0.94 0.90 0.85 0.89 0.94 0.98
0.24 0.24 0.22 0.25 0.29 0.30 0.30 0.29 0.31 0.31 0.34 0.32 0.31 0.34 0.35 0.33 0.34 0.36 0.40 0.43 0.43 0.52 0.68 0.84 0.94 1.02 1.02 0.97 0.93 0.91 0.83 0.80 0.80 0.83 0.92 0.93 0.90 0.92 0.92 0.87 0.88 0.92 0.93
0.20 0.21 0.21 0.23 0.24 0.27 0.29 0.28 0.30 0.31 0.32 0.31 0.30 0.32 0.33 0.34 0.35 0.42 0.48 0.50 0.54 0.74 0.94 0.97 1.01 1.06 1.09 1.03 0.93 0.84 0.72 0.65 0.69 0.76 0.78 0.80 0.83 0.86 0.91 0.91 0.90 0.88 0.84
0.21 0.27 0.25 0.22 0.23 0.24 0.24 0.25 0.29 0.32 0.34 0.32 0.32 0.31 0.32 0.33 0.37 0.48 0.61 0.71 0.74 0.86 0.98 1.01 1.08 1.07 1.02 0.91 0.78 0.68 0.58 0.55 0.59 0.62 0.62 0.60 0.67 0.74 0.79 0.84 0.86 0.84 0.80
0.18 0.24 0.28 0.27 0.26 0.27 0.28 0.24 0.24 0.27 0.30 0.31 0.31 0.30 0.29 0.31 0.33 0.39 0.48 0.52 0.52 0.59 0.67 0.72 0.76 0.77 0.72 0.63 0.57 0.55 0.50 0.48 0.48 0.51 0.54 0.55 0.61 0.63 0.65 0.70 0.78 0.86 0.86
0.16 0.21 0.26 0.29 0.30 0.28 0.29 0.27 0.25 0.23 0.23 0.24 0.26 0.29 0.32 0.35 0.34 0.35 0.34 0.35 0.39 0.42 0.46 0.49 0.49 0.47 0.46 0.47 0.47 0.48 0.48 0.48 0.49 0.51 0.54 0.57 0.61 0.66 0.64 0.64 0.70 0.76 0.80
0.16 0.19 0.24 0.29 0.29 0.28 0.28 0.28 0.27 0.26 0.25 0.25 0.25 0.30 0.35 0.35 0.34 0.36 0.37 0.37 0.38 0.40 0.42 0.44 0.44 0.42 0.42 0.44 0.48 0.50 0.53 0.53 0.51 0.54 0.58 0.58 0.60 0.64 0.66 0.68 0.71 0.74 0.78
0.18 0.19 0.22 0.25 0.29 0.30 0.28 0.28 0.27 0.26 0.26 0.27 0.27 0.29 0.35 0.36 0.39 0.40 0.41 0.43 0.44 0.43 0.43 0.44 0.44 0.45 0.46 0.48 0.53 0.59 0.60 0.61 0.59 0.57 0.59 0.60 0.61 0.63 0.64 0.67 0.69 0.74 0.77
0.22 0.24 0.25 0.27 0.29 0.31 0.30 0.28 0.29 0.30 0.31 0.31 0.31 0.30 0.33 0.34 0.37 0.40 0.39 0.41 0.44 0.44 0.41 0.41 0.43 0.45 0.45 0.46 0.49 0.56 0.60 0.62 0.64 0.64 0.66 0.67 0.68 0.69 0.72 0.71 0.68 0.69 0.74
0.25 0.26 0.27 0.27 0.28 0.29 0.29 0.29 0.31 0.32 0.33 0.34 0.34 0.33 0.33 0.33 0.35 0.38 0.38 0.38 0.40 0.42 0.43 0.44 0.44 0.45 0.47 0.49 0.52 0.54 0.56 0.61 0.68 0.74 0.77 0.78 0.76 0.75 0.77 0.78 0.76 0.77 0.84
0.22 0.25 0.26 0.26 0.27 0.30 0.31 0.32 0.34 0.36 0.37 0.39 0.41 0.41 0.40 0.40 0.40 0.43 0.44 0.43 0.43 0.43 0.43 0.45 0.47 0.48 0.51 0.54 0.56 0.59 0.68 0.71 0.69 0.71 0.75 0.78 0.76 0.77 0.80 0.80 0.81 0.83 0.88
0.19 0.24 0.28 0.29 0.30 0.32 0.35 0.35 0.37 0.39 0.39 0.40 0.41 0.43 0.45 0.47 0.47 0.47 0.50 0.52 0.53 0.51 0.50 0.52 0.52 0.51 0.49 0.50 0.51 0.55 0.63 0.64 0.64 0.68 0.70 0.75 0.79 0.80 0.82 0.85 0.83 0.82 0.84

GEFSGL_prec_meanprecacc_246.txt.gz
Total_Precipitation_Accumulation
0.84 0.87 0.89 0.78 0.64 0.60 0.56 0.52 0.53 0.56 0.60 0.60 0.63 0.70 0.73 0.76 0.78 0.79 0.84 0.92 1.00 1.11 1.18 1.31 1.51 1.70 1.78 1.77 1.81 1.87 1.93 1.80 1.54 1.38 1.14 1.13 1.28 1.24 1.22 1.15 1.23 1.28 1.07
0.78 0.78 0.79 0.73 0.63 0.63 0.56 0.47 0.49 0.54 0.55 0.55 0.59 0.63 0.64 0.70 0.74 0.73 0.72 0.76 0.88 0.95 0.96 0.98 1.09 1.32 1.49 1.62 1.69 1.72 1.80 1.78 1.63 1.59 1.50 1.29 1.25 1.23 1.34 1.40 1.32 1.29 1.25
0.85 0.78 0.79 0.74 0.72 0.74 0.63 0.53 0.52 0.59 0.69 0.69 0.69 0.71 0.68 0.71 0.71 0.71 0.74 0.78 0.81 0.86 0.88 0.90 0.98 1.09 1.26 1.34 1.43 1.54 1.62 1.74 1.72 1.55 1.60 1.56 1.35 1.30 1.32 1.39 1.44 1.53 1.41
1.05 0.94 0.87 0.82 0.79 0.77 0.65 0.58 0.55 0.58 0.62 0.62 0.70 0.77 0.84 0.89 0.87 0.83 0.83 0.83 0.79 0.80 0.86 0.93 0.95 0.98 1.14 1.36 1.44 1.50 1.54 1.64 1.76 1.69 1.63 1.61 1.46 1.40 1.38 1.39 1.51 1.61 1.62
1.09 0.97 0.87 0.78 0.71 0.66 0.65 0.65 0.60 0.55 0.53 0.52 0.60 0.68 0.79 0.88 0.93 0.92 0.80 0.71 0.71 0.75 0.75 0.76 0.83 0.91 0.98 1.17 1.30 1.51 1.53 1.64 1.71 1.78 1.71 1.57 1.44 1.39 1.36 1.34 1.42 1.61 1.65
0.90 0.87 0.74 0.71 0.64 0.56 0.59 0.67 0.66 0.54 0.49 0.49 0.53 0.50 0.52 0.57 0.76 0.76 0.66 0.55 0.58 0.66 0.72 0.74 0.74 0.77 0.81 0.88 0.91 1.16 1.35 1.47 1.57 1.60 1.66 1.55 1.43 1.37 1.46 1.46 1.42 1.46 1.56
0.59 0.61 0.51 0.51 0.62 0.65 0.66 0.64 0.57 0.47 0.47 0.47 0.41 0.37 0.38 0.43 0.50 0.50 0.56 0.54 0.55 0.59 0.66 0.75 0.79 0.78 0.85 0.94 0.92 0.97 1.07 1.14 1.27 1.38 1.42 1.39 1.38 1.34 1.43 1.47 1.45 1.38 1.31
0.31 0.30 0.27 0.35 0.49 0.52 0.49 0.46 0.40 0.40 0.44 0.49 0.42 0.38 0.43 0.42 0.45 0.51 0.53 0.53 0.64 0.70 0.70 0.68 0.78 0.85 0.93 1.10 1.08 1.15 1.09 0.99 1.00 1.06 1.19 1.26 1.22 1.31 1.39 1.56 1.63 1.50 1.39
0.12 0.13 0.16 0.18 0.21 0.22 0.20 0.22 0.28 0.35 0.39 0.35 0.38 0.52 0.51 0.51 0.60 0.55 0.47 0.52 0.65 0.73 0.68 0.69 0.79 0.89 1.07 1.19 1.21 1.22 1.13 1.05 1.10 1.19 1.26 1.32 1.34 1.39 1.45 1.52 1.58 1.58 1.48
0.11 0.12 0.13 0.13 0.15 0.16 0.16 0.17 0.21 0.24 0.29 0.31 0.35 0.48 0.53 0.59 0.60 0.46 0.44 0.53 0.65 0.74 0.74 0.72 0.93 0.93 1.02 1.08 1.14 1.26 1.28 1.15 1.11 1.12 1.16 1.19 1.18 1.26 1.47 1.49 1.60 1.69 1.55
0.14 0.13 0.11 0.12 0.14 0.19 0.24 0.23 0.22 0.21 0.22 0.26 0.31 0.36 0.36 0.37 0.38 0.37 0.40 0.45 0.55 0.67 0.71 0.73 0.69 0.83 0.85 0.95 1.07 1.14 1.37 1.25 1.19 1.20 1.16 1.07 1.04 1.09 1.21 1.39 1.54 1.62 1.57
0.14 0.13 0.12 0.14 0.16 0.19 0.27 0.29 0.26 0.24 0.21 0.22 0.27 0.34 0.35 0.30 0.27 0.29 0.33 0.39 0.50 0.54 0.56 0.64 0.63 0.73 0.77 0.84 0.86 1.04 1.23 1.18 1.12 1.20 1.22 1.14 1.06 1.05 1.07 1.14 1.30 1.37 1.34
0.14 0.14 0.15 0.16 0.18 0.20 0.22 0.25 0.27 0.25 0.25 0.26 0.28 0.32 0.33 0.33 0.32 0.35 0.38 0.42 0.45 0.41 0.39 0.54 0.61 0.69 0.67 0.66 0.79 0.99 1.05 1.08 1.21 1.18 1.20 1.14 1.05 1.03 0.96 1.01 1.12 1.19 1.16
0.18 0.17 0.17 0.18 0.21 0.24 0.26 0.28 0.29 0.31 0.31 0.31 0.31 0.35 0.37 0.37 0.34 0.33 0.36 0.39 0.39 0.38 0.39 0.53 0.65 0.71 0.68 0.67 0.75 0.88 0.94 1.06 1.20 1.13 1.09 1.03 0.96 0.97 0.96 0.96 1.00 1.07 1.13
0.23 0.23 0.22 0.22 0.23 0.27 0.31 0.34 0.32 0.32 0.34 0.33 0.34 0.38 0.37 0.34 0.34 0.35 0.37 0.39 0.41 0.43 0.51 0.66 0.78 0.79 0.80 0.78 0.81 0.91 0.90 0.87 0.94 0.93 0.95 0.96 0.95 0.95 0.91 0.86 0.90 0.95 0.99
0.24 0.25 0.23 0.26 0.30 0.30 0.31 0.30 0.31 0.32 0.34 0.33 0.32 0.35 0.36 0.34 0.35 0.37 0.41 0.44 0.43 0.54 0.70 0.86 0.96 1.03 1.03 0.98 0.95 0.93 0.87 0.84 0.81 0.83 0.92 0.94 0.90 0.93 0.93 0.87 0.89 0.92 0.94
0.20 0.21 0.21 0.23 0.24 0.28 0.29 0.29 0.31 0.32 0.32 0.32 0.31 0.33 0.34 0.35 0.36 0.43 0.48 0.51 0.55 0.75 0.95 0.99 1.02 1.07 1.10 1.04 0.94 0.86 0.75 0.68 0.71 0.78 0.80 0.81 0.84 0.87 0.92 0.92 0.90 0.88 0.85
0.21 0.27 0.25 0.22 0.23 0.24 0.24 0.26 0.29 0.32 0.34 0.33 0.32 0.32 0.33 0.34 0.38 0.49 0.62 0.72 0.75 0.88 0.99 1.02 1.10 1.08 1.03 0.92 0.79 0.70 0.60 0.58 0.62 0.64 0.64 0.62 0.68 0.75 0.80 0.84 0.86 0.85 0.81
0.18 0.24 0.28 0.27 0.26 0.28 0.28 0.24 0.25 0.28 0.30 0.31 0.31 0.30 0.30 0.32 0.34 0.40 0.48 0.53 0.53 0.61 0.69 0.74 0.78 0.80 0.74 0.65 0.59 0.56 0.52 0.51 0.52 0.54 0.56 0.57 0.62 0.64 0.66 0.71 0.79 0.87 0.88
0.16 0.21 0.26 0.29 0.30 0.28 0.29 0.27 0.25 0.23 0.23 0.24 0.26 0.29 0.33 0.35 0.35 0.35 0.35 0.36 0.40 0.43 0.48 0.51 0.51 0.49 0.48 0.49 0.50 0.50 0.51 0.51 0.52 0.54 0.57 0.59 0.63 0.67 0.65 0.65 0.71 0.77 0.81
0.16 0.19 0.25 0.29 0.30 0.28 0.28 0.28 0.27 0.26 0.25 0.25 0.26 0.30 0.35 0.35 0.35 0.37 0.38 0.38 0.39 0.41 0.44 0.46 0.46 0.45 0.44 0.46 0.50 0.53 0.55 0.55 0.54 0.56 0.60 0.61 0.63 0.67 0.67 0.70 0.72 0.76 0.79
0.18 0.19 0.22 0.25 0.29 0.31 0.29 0.28 0.27 0.26 0.26 0.27 0.27 0.29 0.35 0.36 0.39 0.41 0.42 0.44 0.45 0.44 0.44 0.46 0.46 0.47 0.49 0.51 0.55 0.61 0.62 0.62 0.60 0.59 0.61 0.63 0.64 0.66 0.68 0.70 0.72 0.77 0.80
0.22 0.24 0.26 0.28 0.29 0.32 0.31 0.29 0.30 0.31 0.31 0.32 0.32 0.31 0.33 0.34 0.38 0.40 0.40 0.42 0.45 0.45 0.43 0.42 0.45 0.47 0.48 0.48 0.51 0.58 0.62 0.63 0.65 0.66 0.68 0.69 0.71 0.73 0.76 0.76 0.72 0.72 0.77
0.25 0.27 0.27 0.27 0.29 0.29 0.30 0.31 0.33 0.33 0.34 0.35 0.34 0.33 0.34 0.34 0.36 0.38 0.38 0.39 0.41 0.43 0.44 0.46 0.46 0.48 0.50 0.52 0.55 0.57 0.59 0.63 0.70 0.76 0.80 0.82 0.80 0.79 0.81 0.82 0.80 0.80 0.86
0.22 0.26 0.27 0.28 0.29 0.31 0.33 0.35 0.37 0.38 0.38 0.40 0.42 0.42 0.41 0.40 0.40 0.43 0.44 0.43 0.44 0.44 0.45 0.47 0.50 0.51 0.55 0.58 0.60 0.63 0.73 0.76 0.74 0.76 0.78 0.82 0.80 0.81 0.83 0.83 0.83 0.85 0.90
0.22 0.26 0.30 0.31 0.33 0.36 0.38 0.38 0.40 0.42 0.41 0.41 0.42 0.44 0.45 0.47 0.47 0.48 0.51 0.53 0.54 0.54 0.53 0.55 0.56 0.55 0.54 0.55 0.55 0.60 0.67 0.68 0.69 0.73 0.75 0.79 0.83 0.83 0.85 0.89 0.86 0.85 0.87